EW4052 Weather Reports


time (UTC)temp
F
wind
direction
speed
knots
gust
knots
rain 1hr
in
rain 24hr
in
rain mn
in
humidity
%
barometer
mb
20260905034539 75 198 0.0 0.0 0.00 0.00 0.00 100 1011.0
20260905033037 76 198 0.0 0.0 0.00 0.00 0.00 100 1011.0
20260905031531 76 198 0.0 0.0 0.00 0.00 0.00 100 1010.9
20260905030034 77 198 0.0 0.0 0.00 0.00 0.00 100 1010.9
20260905024530 77 198 0.0 0.0 0.00 0.00 0.00 5 1010.8
20260905023020 77 198 0.0 0.0 0.00 0.00 0.00 12 1010.6
20260905021518 78 198 0.0 0.0 0.00 0.00 0.00 18 1010.5
20260905020025 78 198 0.0 0.0 0.00 0.00 0.00 26 1010.4
20260905014516 79 198 0.0 0.0 0.00 0.00 0.00 24 1010.2
20260905013014 80 198 0.0 0.0 0.00 0.00 0.00 25 1010.1
20260905011510 81 198 0.0 0.0 0.00 0.00 0.00 29 1009.8
20260905010010 82 198 0.0 0.0 0.00 0.00 0.00 43 1009.7
20260905004510 83 198 0.0 0.0 0.00 0.00 0.00 49 1009.7
20260905003008 83 198 0.0 0.0 0.00 0.00 0.00 56 1009.7
20260905001507 84 198 0.0 0.0 0.00 0.00 0.00 63 1009.6
20260905000005 85 198 0.0 0.0 0.00 0.00 0.00 67 1009.5
20260904234507 86 198 0.0 0.0 0.00 0.00 0.00 69 1009.6
20260904233004 87 198 0.0 0.0 0.00 0.00 0.00 69 1009.4
20260904231504 88 198 0.0 0.0 0.00 0.00 0.00 69 1009.2
20260904230003 88 197 0.0 0.9 0.00 0.00 0.00 69 1009.2
20260904224501 88 202 0.0 2.6 0.00 0.00 0.00 69 1009.1
20260904223001 89 246 0.0 0.0 0.00 0.00 0.00 68 1008.9
20260904221610 89 247 1.7 4.3 0.00 0.00 0.00 69 1008.8
20260904214611 88 360 0.0 0.0 0.00 0.00 0.00 69 1008.8
20260904213058 88 159 0.0 0.0 0.00 0.00 0.00 69 1008.9
20260904211606 89 159 0.0 1.7 0.00 0.00 0.00 67 1009.1
20260904210057 90 222 0.0 2.6 0.00 0.00 0.00 66 1009.0
20260904204556 90 213 0.0 4.3 0.00 0.00 0.00 67 1008.9
20260904203057 90 259 0.0 0.0 0.00 0.00 0.00 67 1008.8
20260904201554 90 124 0.0 1.7 0.00 0.00 0.00 68 1008.8
20260904200106 89 138 0.0 2.6 0.00 0.00 0.00 68 1008.8
20260904194557 89 339 0.0 1.7 0.00 0.00 0.00 69 1008.9
20260904193053 88 89 0.0 6.1 0.00 0.00 0.00 68 1008.9
20260904191552 88 14 0.0 5.2 0.00 0.00 0.00 68 1009.0
20260904190051 88 328 0.0 3.5 0.00 0.00 0.00 68 1008.8
20260904184550 88 201 0.0 5.2 0.00 0.00 0.00 69 1008.8
20260904183050 88 224 0.0 0.9 0.00 0.00 0.00 68 1009.0
20260904181554 89 250 0.0 2.6 0.00 0.00 0.00 66 1009.1
20260904180049 90 317 0.0 2.6 0.00 0.00 0.00 64 1009.1
20260904174553 90 234 0.0 0.0 0.00 0.00 0.00 66 1009.2
20260904173045 87 234 0.0 0.0 0.00 0.00 0.00 69 1009.3
20260904171554 87 234 0.0 0.0 0.00 0.00 0.00 68 1009.3
20260904170040 87 234 0.0 0.0 0.00 0.00 0.00 68 1009.3
20260904164538 85 234 0.0 0.0 0.00 0.01 0.00 69 1009.2
20260904163033 84 234 0.0 3.5 0.00 0.01 0.00 70 1009.3
20260904161535 83 233 0.0 3.5 0.00 0.01 0.00 70 1009.4
20260904160028 83 239 0.0 4.3 0.00 0.01 0.00 70 1009.3
20260904154527 82 241 0.0 6.1 0.00 0.01 0.00 69 1009.2
20260904153025 82 240 1.7 5.2 0.00 0.01 0.00 69 1009.2
20260904151522 81 217 0.0 5.2 0.00 0.01 0.00 66 1009.2
20260904150021 80 218 0.0 6.1 0.00 0.01 0.00 66 1009.4
20260904144516 79 227 0.0 5.2 0.00 0.04 0.00 62 1009.3
20260904143013 78 151 0.0 6.1 0.00 0.04 0.00 58 1009.4
20260904141510 78 209 0.9 5.2 0.00 0.04 0.00 53 1009.3
20260904140011 77 173 0.0 2.6 0.00 0.04 0.00 51 1009.2
20260904134506 76 187 0.0 2.6 0.00 0.04 0.00 41 1009.2
20260904133005 75 172 0.0 3.5 0.00 0.04 0.00 14 1008.9
20260904131503 0 110 0.0 1.7 0.00 0.04 0.00 1008.9
20260904130059 0 106 0.0 0.0 0.00 0.04 0.00 1009.0
20260904124555 0 118 0.0 0.0 0.00 0.04 0.00 1008.9
20260904123051 0 198 0.0 0.0 0.00 0.04 0.00 1008.9
20260904121547 0 198 0.0 3.5 0.00 0.04 0.00 1008.8
20260904120049 0 203 0.0 3.5 0.00 0.04 0.00 1008.7
20260904114537 0 204 0.0 6.1 0.00 0.04 0.00 1008.5
20260904113034 0 188 0.9 5.2 0.00 0.04 0.00 1008.5
20260904111537 0 186 0.0 1.7 0.00 0.04 0.00 1008.4
20260904110024 0 186 0.0 1.7 0.00 0.04 0.00 1008.5
20260904104520 0 213 0.0 3.5 0.00 0.04 0.00 1008.4
20260904103015 73 261 0.0 0.9 0.00 0.04 0.00 21 1008.3
20260904101513 73 295 0.0 0.9 0.00 0.04 0.00 21 1008.2
20260904100010 74 123 0.0 3.5 0.00 0.04 0.00 26 1008.2
20260904094509 74 45 0.0 1.7 0.00 0.06 0.00 31 1008.2
20260904093008 74 231 0.0 0.0 0.00 0.06 0.00 36 1008.1
20260904091507 75 231 0.0 0.0 0.00 0.06 0.00 41 1008.1
20260904090006 75 261 0.0 0.9 0.00 0.06 0.00 42 1008.1
20260904084505 75 117 0.0 5.2 0.00 0.12 0.00 36 1008.1
20260904083005 75 82 0.0 0.0 0.00 0.12 0.00 29 1008.1
20260904081506 74 38 0.0 0.0 0.00 0.12 0.00 22 1008.2
20260904080004 74 40 0.0 0.0 0.00 0.12 0.00 18 1008.1
20260904074507 74 128 0.0 0.0 0.00 0.12 0.00 17 1008.2
20260904073003 74 124 0.0 4.3 0.00 0.12 0.00 19 1008.2
20260904071559 75 133 0.0 0.0 0.00 0.12 0.00 24 1008.3
20260904070115 75 133 0.0 0.0 0.00 0.12 0.00 31 1008.3
20260904064553 75 333 0.0 0.0 0.00 0.12 0.00 36 1008.4
20260904063100 76 325 0.0 3.5 0.00 0.12 0.00 39 1008.5
20260904061549 76 69 0.0 4.3 0.00 0.12 0.00 43 1008.4
20260904060047 76 139 0.9 4.3 0.00 0.12 0.00 46 1008.4
20260904054547 76 63 0.0 0.0 0.00 0.12 0.00 44 1008.3
20260904053044 77 37 0.0 4.3 0.00 0.12 0.00 48 1008.3
20260904051543 77 340 0.0 0.0 0.00 0.12 0.00 45 1008.1
20260904050041 77 24 0.0 5.2 0.00 0.12 0.00 45 1008.1
20260904044536 77 40 0.0 0.0 0.00 0.12 0.12 44 1008.2
20260904043032 77 30 0.0 4.3 0.00 0.12 0.12 39 1008.1
20260904041533 77 32 0.0 0.0 0.00 0.12 0.12 29 1008.2
20260904040024 77 348 0.0 0.0 0.00 0.12 0.12 28 1008.1